Orbital Elements at Epoch 2459200.5 (2020-Dec-17.0) TDB
Reference: JPL 18 (heliocentric ecliptic J2000)
Element | Value | Uncertainty (1-sigma) | Units |
e | .09787044228477994 | 5.6664e-08 | |
a | 2.993252447168993 | 2.5813e-08 | au |
q | 2.700301506294564 | 1.7313e-07 | au |
i | 10.88641364215389 | 6.0119e-06 | deg |
node | 50.69482694321869 | 3.1583e-05 | deg |
peri | 349.7906946623777 | 4.3157e-05 | deg |
M | 41.16373146303118 | 2.8954e-05 | deg |
tp | 2458984.215358104077 (2020-May-14.71535810) | 0.00015165 | TDB |
period | 1891.53092577285 5.18 | 2.4468e-05 6.699e-08 | d yr |
n | .1903220270389762 | 2.4619e-09 | deg/d |
Q | 3.286203388043423 | 2.8339e-08 | au |
|
| | Orbit Determination Parameters
Additional Information
|